Weather Roundup
Issued by NWS

Home | Current Version | Previous Version | Graphics & Text | Print | Product List | Glossary Off
Versions: 1 2 3 4 5 6 7 8 9 10 11 12 13 14 15 16 17 18 19 20 21 22 23 24 25 26 27 28 29 30 31 32 33 34 35 36 37 38 39 40 41 42 43 44 45 46 47 48 49 50

000
NZUS93 KARX 271010
HRRWXR

CURRENT HOURLY OBSERVATIONS ACROSS
MUCH OF THE UPPER MISSISSIPPI VALLEY
NATIONAL WEATHER SERVICE LA CROSSE WI
400 AM CST FRI FEB 27 2015


...SOUTHEAST MINNESOTA...


CITY           SKY/WX    TMP DP  RH WIND       PRES   REMARKS
ROCHESTER      CLEAR    -13 -17  82 W10       30.46S WCI -32
ROCHESTER/MAYO FAIR      -4  -8  81 W5        30.48S WCI -15
WINONA         CLEAR     -8 -13  77 CALM      30.54R
AUSTIN         PTCLDY    -9 -15  77 NW5       30.48R WCI -21
ALBERT LEA     PTCLDY   -11 -17  77 CALM      30.48S
DODGE CENTER   PTCLDY   -15 -18  84 W3        30.45S
PRESTON        PTCLDY   -12 -16  80 NW7       30.46S WCI -27
OWATONNA       PTCLDY   -15 -20  76 SW3       30.49S
FARIBAULT      PTCLDY   -15 -18  84 CALM      30.50S
$$

...ELSEWHERE IN MINNESOTA...


CITY           SKY/WX    TMP DP  RH WIND       PRES   REMARKS
MINNEAPOLIS    CLEAR     -2  -9  72 W3        30.51S
INTNL FALLS    MOCLDY   -16 -21  78 CALM      30.36S
DULUTH         PTCLDY    -8 -14  74 W7        30.35R WCI -23
RED WING       CLEAR    -11 -18  70 CALM      30.51R
REDWOOD FALLS  CLEAR     -9 -14  78 W8        30.53S WCI -25
MANKATO        CLEAR     -8 -15  71 W6        30.50S WCI -21
FAIRMONT       CLEAR     -8 -18  59 NW6       30.49S WCI -21
$$

...SOUTHWEST WISCONSIN...


CITY           SKY/WX    TMP DP  RH WIND       PRES   REMARKS
LA CROSSE      CLEAR     -6 -11  79 CALM      30.52S
PRAIRIE DU CHI CLEAR    -10 -16  77 CALM      30.54S
BOSCOBEL       CLEAR    -13 -18  78 CALM      30.53S
LONE ROCK      CLEAR     -8 -13  78 W6        30.50S WCI -21
PLATTEVILLE    CLEAR    -10 -16  77 W6        30.48S WCI -24
FORT MC COY    CLEAR    -17 -24  73 E3        30.49S
CAMP DOUGLAS   CLEAR     -7 -11  83 W5        30.46S WCI -19
VIROQUA        FAIR      -6 -10  81 W5        30.43S WCI -17
WIS DELLS      CLEAR     -7 -12  76 CALM      30.45S
$$

...ELSEWHERE IN WISCONSIN...


CITY           SKY/WX    TMP DP  RH WIND       PRES   REMARKS
MILWAUKEE      FAIR       3  -8  60 W7        30.46R WCI  -9
MADISON        CLEAR     -2 -10  69 W5        30.46R WCI -12
GREEN BAY      CLEAR     -1  -8  72 W8        30.44R WCI -15
EAU CLAIRE     CLEAR     -6 -13  71 W5        30.47R WCI -17
BLACK RVR FLS  FAIR     -19 -26  70 CALM      30.48S
MEDFORD        CLEAR    -10 -15  78 W3        30.37R
WAUSAU         CLEAR     -6 -13  71 NW7       30.39R WCI -20
WIS RAPIDS     FAIR     -12 -17  78 CALM      30.45R
MARSHFIELD     CLEAR     -5 -13  68 W7        30.41R WCI -19
RICE LAKE      CLEAR     -9 -15  74 CALM      30.45S
$$

...NORTHEAST IOWA...


CITY           SKY/WX    TMP DP  RH WIND       PRES   REMARKS
DECORAH        PTCLDY    -9 -17  70 CALM      30.48S
MASON CITY     MOCLDY   -15 -19  82 W9        30.52R WCI -34
CHARLES CITY   MOCLDY   -15 -22  70 W7        30.51S WCI -31
OELWEIN        MOCLDY   -17 -24  70 W5        30.52R WCI -29
$$

...ELSEWHERE IN IOWA...


CITY           SKY/WX    TMP DP  RH WIND       PRES   REMARKS
DES MOINES     CLEAR     -5 -11  75 NW3       30.58R
IOWA CITY      CLEAR     -8 -12  83 CALM      30.58R
FORT DODGE     CLEAR     -9 -17  70 CALM      30.54F
$$

...NORTHERN ILLINOIS...


CITY           SKY/WX    TMP DP  RH WIND       PRES   REMARKS
CHICAGO-OHARE  CLEAR      2  -8  63 NW10      30.47R WCI -14
CHICAGO-MIDWAY CLEAR      4  -5  66 NW7       30.48R WCI  -8
MOLINE         PTCLDY   -10 -15  78 W7        30.55R WCI -25
ROCKFORD       CLEAR    -11 -17  75 CALM      30.50S
PEORIA         CLEAR     -4 -10  75 NW5       30.54S WCI -15
$$

NOTE: "FAIR" INDICATES FEW OR NO CLOUDS BELOW 12,000 FEET WITH NO
SIGNIFICANT WEATHER AND/OR OBSTRUCTIONS TO VISIBILITY. WIND
SPEEDS ARE IN MILES-PER-HOUR.



USA.gov is the U.S. government's official web portal to all federal, state and local government web resources and services.